Overview Statistics Trail Chart Weather Telemetry Raw packets
 

This is the latest recevied weather packets stored in our database for station/object YO8TVD-10. If no packets are shown the sender has not sent any weather packets the latest 10 day(s).

<< 20 21 22 23 24 25 26 >>
Time Temp. Humidity Pressure Rain* Wind** Luminosity Snow
1788194103 25.56° C 50% 973.3 hPa - - - -
1788193225 25° C 49% 973.4 hPa - - - -
1788192303 24.44° C 48% 973.4 hPa - - - -
1788191401 24.44° C 48% 973.6 hPa - - - -
1788190501 24.44° C 48% 973.5 hPa - - - -
1788189601 25° C 48% 973.6 hPa - - - -
1788188701 25° C 48% 973.7 hPa - - - -
1788187799 25° C 48% 973.6 hPa - - - -
1788186899 25° C 47% 973.9 hPa - - - -
1788186004 25° C 47% 974 hPa - - - -
1788185104 25.56° C 47% 973.9 hPa - - - -
1788184204 25.56° C 49% 974 hPa - - - -
1788183303 26.11° C 49% 974.1 hPa - - - -
1788182403 26.11° C 50% 974.1 hPa - - - -
1788181503 26.11° C 51% 974.1 hPa - - - -
1788180603 26.67° C 53% 974.2 hPa - - - -
1788179702 27.22° C 55% 974.3 hPa - - - -
1788178802 27.22° C 56% 974.5 hPa - - - -
1788177902 27.22° C 56% 974.6 hPa - - - -
1788177002 27.22° C 55% 974.6 hPa - - - -
1788176102 27.22° C 55% 974.7 hPa - - - -
1788175201 27.22° C 55% 974.8 hPa - - - -
1788174301 27.22° C 54% 974.8 hPa - - - -
1788173401 27.78° C 54% 975 hPa - - - -
1788172501 27.78° C 53% 975.2 hPa - - - -

* Rain since midnight (hover to see other rain measurements)
** Current wind speed in m/s (hover to see current wind gust speed)